Date,TemperatureHighF,TemperatureAvgF,TemperatureLowF,DewpointHighF,DewpointAvgF,DewpointLowF,HumidityHigh,HumidityAvg,HumidityLow,PressureMaxIn,PressureMinIn,WindSpeedMaxMPH,WindSpeedAvgMPH,GustSpeedMaxMPH,PrecipitationSumIn
2013-3-1,62,45,32,-100,-100,-100,0,0,100,0.00,40.00,14,7,17,0.00
2013-3-2,69,53,31,-100,-100,-100,0,0,100,0.00,40.00,9,4,14,0.00
2013-3-3,76,55,38,-100,-100,-100,0,0,100,0.00,40.00,19,6,25,0.00
2013-3-4,76,65,50,-100,-100,-100,0,0,100,0.00,40.00,25,7,30,0.00
2013-3-5,56,46,37,-100,-100,-100,0,0,100,0.00,40.00,22,11,28,0.00
2013-3-6,65,50,41,-100,-100,-100,0,0,100,0.00,40.00,12,5,19,0.00
2013-3-7,78,61,45,-100,-100,-100,0,0,100,0.00,40.00,16,6,20,0.00
2013-3-8,76,64,51,-100,-100,-100,0,0,100,0.00,40.00,20,9,25,0.00
2013-3-9,66,58,47,-100,-100,-100,0,0,100,0.00,40.00,22,9,29,0.00
2013-3-10,53,43,34,-100,-100,-100,0,0,100,0.00,40.00,13,8,17,0.00
2013-3-11,62,43,28,-100,-100,-100,0,0,100,0.00,40.00,12,7,16,0.00
2013-3-12,69,53,36,-100,-100,-100,0,0,100,0.00,40.00,12,5,19,0.00
2013-3-13,72,57,43,-100,-100,-100,0,0,100,0.00,40.00,10,6,17,0.00
2013-3-14,78,55,42,-100,-100,-100,0,0,100,0.00,40.00,8,3,12,0.00
2013-3-15,83,59,43,-100,-100,-100,0,0,100,0.00,40.00,7,3,12,0.00
2013-3-16,84,63,51,-100,-100,-100,0,0,100,0.00,40.00,16,5,24,0.00
2013-3-17,77,64,53,-100,-100,-100,0,0,100,0.00,40.00,21,9,28,0.00
2013-3-18,75,64,46,-100,-100,-100,0,0,100,0.00,40.00,13,7,20,0.00
2013-3-19,74,57,45,-100,-100,-100,0,0,100,0.00,40.00,15,5,22,0.00
2013-3-20,68,57,43,-100,-100,-100,0,0,100,0.00,40.00,18,8,23,0.00
2013-3-21,80,61,45,-100,-100,-100,0,0,100,0.00,40.00,27,8,27,0.00
2013-3-22,80,62,49,-100,-100,-100,0,0,100,0.00,40.00,14,6,23,0.00
2013-3-23,74,59,46,-100,-100,-100,0,0,100,0.00,40.00,28,11,35,0.00
2013-3-24,60,42,29,-100,-100,-100,0,0,100,0.00,40.00,14,8,24,0.00
2013-3-25,59,42,32,-100,-100,-100,0,0,100,0.00,40.00,15,6,17,0.00
2013-3-26,65,47,33,-100,-100,-100,0,0,100,0.00,40.00,13,7,17,0.00
2013-3-27,78,58,39,-100,-100,-100,0,0,100,0.00,40.00,10,5,17,0.00
2013-3-28,84,65,51,-100,-100,-100,0,0,100,0.00,40.00,9,5,16,0.00
2013-3-29,82,63,48,-100,-100,-100,0,0,100,0.00,40.00,10,4,14,0.00
2013-3-30,82,64,44,-100,-100,-100,0,0,100,0.00,40.00,10,4,19,0.00
2013-3-31,79,68,61,-100,-100,-100,0,0,100,0.00,40.00,12,5,16,0.00